379  
ASUS41 KALY 070110  
RWRALY  
 
NEW YORK STATE HOURLY WEATHER ROUNDUP  
NATIONAL WEATHER SERVICE ALBANY NY  
900 PM EDT MON APR 06 2020  
 
NOTE: "FAIR" INDICATES FEW OR NO CLOUDS BELOW 12,000 FEET WITH NO  
SIGNIFICANT WEATHER AND/OR NO S TO VISIBILITY
.  
 
NYZ032-033-038>043-046>054-057>066-NYZ062>081-082-084-070200-  
EAST  
 
 
CITY SKY/WX TMP DP RH WIND PRES REMARKS
 
ALBANY FAIR 52 9 17 NW12 29.97R  
GLENS FALLS FAIR 49 12 22 W7 29.94R  
POUGHKEEPSIE FAIR 49 28 44 N3 29.95R  
NEWBURGH CLEAR 54 21 28 NW12 29.96R  
MONTGOMERY FAIR 53 19 26 NW5 29.96R  
WHITE PLAINS FAIR 55 20 25 NW12 29.95R  
ISLIP FAIR 49 39 68 SW13 29.96R  
NEW YORK CITY FAIR 60 22 23 NW12 29.95R  
CENTRAL PARK FAIR 60 19 20 VRB5 29.99R  

 
 
NYZ005>009-017-018-044>046-055-056-070200-  
CENTRAL  
 
 
CITY SKY/WX TMP DP RH WIND PRES REMARKS
 
FULTON FAIR 46 22 38 SW6 30.00S  
SYRACUSE MOCLDY 48 22 35 W7 30.01R  
ROME FAIR 45 19 35 NW5 30.00S  
ELMIRA CLOUDY 52 25 35 N8 30.02R  
BINGHAMTON FAIR 47 23 38 NW7 29.99R  
MONTICELLO FAIR 48 12 23 W6 29.99R  

 
 
NYZ026>034-041>043-087-070200-  
NORTH  
 
 
CITY SKY/WX TMP DP RH WIND PRES REMARKS
 
WATERTOWN FAIR 41 28 60 SW5 29.98S  
FORT DRUM NOT AVBL  
OGDENSBURG FAIR 45 30 57 SW9G16 29.93R  
MASSENA FAIR 44 27 51 SW10 29.94R  
SARANAC LAKE FAIR 41 19 41 W5 29.91R  
PLATTSBURGH FAIR 50 22 33 W5 29.91R  

 
 
NYZ001>004-010>016-019>021-085-070200-  
WEST  
 
 
CITY SKY/WX TMP DP RH WIND PRES REMARKS
 
NIAGARA FALLS CLOUDY 46 26 45 SW10 30.03S  
BUFFALO CLOUDY 47 14 26 SW9 30.04S  
DUNKIRK CLOUDY 50 22 33 CALM 30.05S  
JAMESTOWN CLOUDY 48 9 20 N7 30.04F  
WELLSVILLE MOCLDY 46 11 24 NW7 30.04R  
ROCHESTER CLOUDY 51 29 42 W8 30.03R  
PENN YAN CLOUDY 51 28 41 W5 30.03R  

 
 
KEY  
WCI = WIND CHILL INDEX  
VSB = VISIBILITY  
HX = HEAT INDEX  

 
 
 
CLICK HERE TO GO TO PREVIOUS BULLETINS.

The Nexlab NY Page
The Nexlab VT Page
The Nexlab MA Page
The Nexlab CT Page Main Text Page